Weather in Horodnytsia

Ukraine / Zhytomyr Region     50°48′34″N   27°19′06″E
temp.,
°C
wind,
m/s
gust,
m/s
humid.,
%
clouds,
%
prec.,
mm/h
press.,
hPa
HPBL,
m
18 april, sun
sun1800:00+4wsw249515 0.0 1020108
03:00+2wnw22977 0.0 102031
06:00+2wnw249819 0.0 101974
09:00+6wnw358568 0.0 1019290
12:00+10nw3571100 0.0 1018702
15:00+13nnw3467100 0.0 10171097
18:00+12nnw3472100 0.1 1017633
21:00+8ne3592100 0.3 101897
19 april, mon
mon1900:00+7ene3794100 0.0 1019274
03:00+7ene3795100 0.0 1018345
06:00+5ne3789100 0.0 1018276
09:00+6ene4778100 0.0 1019394
12:00+10e566294 0.0 1018954
15:00+12e4557100 0.0 10171411
18:00+11ene3561100 0.1 1016385
21:00+8ene497399 0.1 1017405
20 april, tue
tue2000:00+5ne398711 0.0 1017212
03:00+4ne36958 0.0 1015135
06:00+3ne389679 0.0 1015192
09:00+6ne478888 0.1 1014479
12:00+8ne457499 0.1 1014947
15:00+9n5665100 0.2 10121189
18:00+8nne466898 0.0 1012863
21:00+6nnw247898 0.1 1012149
21 april, wed
wed2100:00+4nw23897 0.1 101268
03:00+4w3886100 0.1 1012224
06:00+5w4979100 0.0 1012312
09:00+6w377688 0.0 1013349
12:00+11w466299 0.3 10121289
15:00+13w465590 0.9 10121483
18:00+12w466083 0.4 10121282
21:00+8wsw227949 0.6 101423
22 april, thu
thu2200:00+7ssw3481100 0.0 101547
03:00+6sw368895 0.0 101597
06:00+5sw359319 0.0 101683
09:00+10sw36735 0.0 1016375
12:00+14sw565611 0.1 10161416
15:00+16wsw4653100 1.9 10151615
18:00+13w467275 2.9 1016643
21:00+9s11846 3.6 101711